Tracking 19199 objects as of 25-Jun-2018
HD Live streaming from Space Station
objects crossing your sky now

FENGYUN 1C DEB

Track FENGYUN 1C DEB now!
10-day predictions


NORAD ID: 30982
Int'l Code: 1999-025BBY
Perigee: 609.3 km
Apogee: 887.5 km
Inclination: 98.3 °
Period: 99.6 minutes
Semi major axis: 7119 km
RCS: 0.0096 m2 (small)
Launch date: May 10, 1999
Source: People's Republic of China (PRC)
Launch site: Taiyaun Space Center, China (TSC)

Note: This is SATELLITE DEBRIS
aabbcc
Your satellite tracking list
Your tracking list is empty




NASA's NSSDC Master Catalog

Two Line Element Set (TLE):
1 30982U 99025BBY 18175.06416576 +.00000061 +00000-0 +25878-4 0  9995
2 30982 098.3021 209.0993 0195411 005.1840 022.7672 14.45237905316026
Source of the keplerian elements: AFSPC